Simultaneous Nadir Overpasses (SNOs) Predictions

Prediction of SNOs between AQUA and GOES-15 Satellite Orbit:

Table of predicted SNOs for the next 14.0 days since TLE Epoch: 5/11/2012
Index Date Time (AQUA) AQUA Lat,Lon GOES-15 Lat,Lon Distance(km) Time Diff (sec)
1 05/12/2012 22:29:26 0.44,-133.46 0.00,-135.38 219.01 80
2 05/13/2012 10:50:40 0.68,-138.61 -0.02,-135.38 367.27 80
3 05/15/2012 10:38:29 0.02,-135.66 -0.01,-135.41 28.75 80
4 05/17/2012 10:26:18 -0.62,-132.71 -0.02,-135.43 309.24 80
5 05/17/2012 22:47:42 -0.50,-137.90 0.03,-135.43 281.09 80
6 05/19/2012 22:35:31 0.13,-134.95 0.04,-135.44 55.83 80
7 05/21/2012 22:23:21 0.80,-132.01 0.04,-135.45 391.98 80
8 05/22/2012 10:44:37 0.29,-137.17 -0.06,-135.45 195.01 80
9 05/24/2012 10:32:26 -0.30,-134.21 -0.06,-135.44 140.14 80
10 05/24/2012 22:53:51 -0.77,-139.41 0.07,-135.44 451.13 80




NCC Satellite Simultaneous Nadir Overpasses (SNOs) Prediction Service
